Volver al catálogo

STARLINK-3459

ActivoComunicacionesVLEO
NORAD 51757·PAYLOAD·🇺🇸 United States

Lanzado Feb 21, 2022 desde Cape Canaveral Space Force Station

Loading…

Próximos Pases (próximas 24 horas)

TLE

ActualizadoSource: CelesTrak SupGP

Época: Sep 14, 2026, 20:57 UTC

1 51757C 22016AV  26257.87340278 -.00026012  00000+0 -76861-3 0  2577
2 51757  53.1578 165.6806 0001276  92.9057 183.0678 15.34400320    12

Sigue STARLINK-3459 en tiempo real con AllMySat

Download on the App Store